Location: Fours
(44.3167°N, 6.7000°E)
Time: 10:04:25
(UTC+00:00)

Cosmos 158 Rocket - Pass Details

Date: 30 November 2020
Orbit: 698 x 794 km, 74.0° (Epoch: 26 January)

Event Time Altitude Azimuth Distance (km) Brightness Sun altitude
Rises 17:55:30 0° 189° (S) 3,131 7.4 -20.8°
Reaches altitude 10° 17:57:52 10° 186° (S) 2,201 6.6 -21.3°
Maximum altitude 18:02:44 61° 107° (ESE) 808 3.8 -22.1°
Enters shadow 18:03:12 58° 79° (E) 830 3.8 -22.2°
